When you browse on this site, cookies collect data to enhance your experience and personalize the content and advertising you see.
Visit our Privacy Policy to learn more. By continuing to use the site, you agree to this use of cookies and data.
  • In Czech Republic
  • List of Countries
  • For 7 days
  • Water Temperature
  • Weather Map
  • Weather Widgets
  • user-avatar
    Login

    Hourly Weather Kitzbuhel

    Today, 18 January, Saturday

    Time Temperature Precipitation Wind Pressure Humidity
    00:00 +2°C° 0.1 mm 1 mps 678 mmHg 85%
    01:00 0°C° 0.1 mm 0 mps 678 mmHg 90%
    02:00 0°C° 0.4 mm 0 mps 678 mmHg 92%
    03:00 +1°C° 0.4 mm 0 mps 679 mmHg 95%
    04:00 +1°C° 0.4 mm 0 mps 679 mmHg 97%
    05:00 +2°C° 1.2 mm 1 mps 679 mmHg 98%
    06:00 +2°C° 1.2 mm 1 mps 679 mmHg 98%
    07:00 +2°C° 1.2 mm 1 mps 680 mmHg 98%
    08:00 +2°C° 1 mm 1 mps 680 mmHg 97%
    09:00 +2°C° 1 mm 1 mps 680 mmHg 96%
    10:00 +2°C° 1 mm 1 mps 680 mmHg 95%
    11:00 +2°C° 0.1 mm 1 mps 680 mmHg 93%
    12:00 +2°C° 0.1 mm 1 mps 680 mmHg 91%
    13:00 +2°C° 0.1 mm 1 mps 680 mmHg 89%
    14:00 +2°C° 0.2 mm 1 mps 680 mmHg 90%
    15:00 +2°C° 0.2 mm 1 mps 680 mmHg 91%
    16:00 +1°C° 0.2 mm 1 mps 680 mmHg 93%
    17:00 0°C° 0.1 mm 1 mps 680 mmHg 92%
    18:00 0°C° 0.1 mm 1 mps 680 mmHg 92%
    19:00 -2°C° 0.1 mm 0 mps 681 mmHg 92%
    20:00 -2°C° 0.1 mm 0 mps 681 mmHg 92%
    21:00 -3°C° 0.1 mm 0 mps 681 mmHg 92%
    22:00 -3°C° 0.1 mm 0 mps 681 mmHg 92%
    23:00 -3°C° 0.1 mm 0 mps 681 mmHg 93%

    Tomorrow, 19 January, Sunday

    Time Temperature Precipitation Wind Pressure Humidity
    00:00 -3°C° 0.1 mm 0 mps 681 mmHg 93%
    01:00 -4°C° 0.1 mm 0 mps 681 mmHg 94%
    02:00 -3°C° 0.1 mm 1 mps 681 mmHg 94%
    03:00 -3°C° 0.1 mm 1 mps 681 mmHg 95%
    04:00 -4°C° 0.1 mm 1 mps 681 mmHg 95%
    05:00 -4°C° 0.4 mm 1 mps 681 mmHg 95%
    06:00 -3°C° 0.4 mm 1 mps 682 mmHg 95%
    07:00 -3°C° 0.4 mm 1 mps 682 mmHg 95%
    08:00 -3°C° 0.5 mm 1 mps 682 mmHg 94%
    09:00 -2°C° 0.5 mm 1 mps 683 mmHg 94%
    10:00 -1°C° 0.5 mm 1 mps 683 mmHg 93%
    11:00 -1°C° 0.3 mm 1 mps 683 mmHg 90%
    12:00 -1°C° 0.3 mm 1 mps 684 mmHg 88%
    13:00 0°C° 0.3 mm 1 mps 684 mmHg 85%
    14:00 -1°C° 0.2 mm 1 mps 684 mmHg 87%
    15:00 -1°C° 0.2 mm 1 mps 684 mmHg 90%
    16:00 -2°C° 0.2 mm 1 mps 684 mmHg 92%
    17:00 -3°C° 0.1 mm 1 mps 685 mmHg 94%
    18:00 -3°C° 0.1 mm 1 mps 685 mmHg 95%
    19:00 -5°C° 0.1 mm 0 mps 686 mmHg 97%
    20:00 -5°C° 0.1 mm 0 mps 686 mmHg 97%
    21:00 -5°C° 0.1 mm 0 mps 687 mmHg 97%
    22:00 -6°C° 0.1 mm 0 mps 687 mmHg 97%
    23:00 -6°C° 0.1 mm 0 mps 688 mmHg 96%

    Day after tomorrow, 20 January, Monday

    Time Temperature Precipitation Wind Pressure Humidity
    00:00 -6°C° 0.1 mm 0 mps 688 mmHg 96%
    01:00 -6°C° 0.1 mm 0 mps 688 mmHg 95%
    02:00 -7°C° 0 mm 1 mps 688 mmHg 93%
    03:00 -7°C° 0 mm 1 mps 688 mmHg 92%
    04:00 -8°C° 0 mm 1 mps 688 mmHg 90%
    05:00 -8°C° 0 mm 1 mps 689 mmHg 89%
    06:00 -8°C° 0 mm 1 mps 689 mmHg 87%
    07:00 -8°C° 0 mm 1 mps 689 mmHg 86%
    08:00 -7°C° 0 mm 1 mps 690 mmHg 83%
    09:00 -6°C° 0 mm 1 mps 690 mmHg 80%
    10:00 -4°C° 0 mm 1 mps 690 mmHg 77%
    11:00 -2°C° 0 mm 1 mps 691 mmHg 75%
    12:00 -1°C° 0 mm 1 mps 691 mmHg 73%
    13:00 0°C° 0 mm 1 mps 691 mmHg 70%
    14:00 0°C° 0 mm 1 mps 691 mmHg 73%
    15:00 0°C° 0 mm 1 mps 690 mmHg 76%
    16:00 -1°C° 0 mm 1 mps 690 mmHg 78%
    17:00 -1°C° 0 mm 1 mps 690 mmHg 76%
    18:00 -4°C° 0 mm 2 mps 691 mmHg 73%
    19:00 -5°C° 0 mm 2 mps 691 mmHg 71%
    20:00 -5°C° 0 mm 2 mps 691 mmHg 68%
    21:00 -4°C° 0 mm 2 mps 691 mmHg 65%
    22:00 -4°C° 0 mm 2 mps 691 mmHg 63%
    23:00 -4°C° 0 mm 2 mps 691 mmHg 62%

    21 January, Tuesday

    Time Temperature Precipitation Wind Pressure Humidity
    00:00 -4°C° 0 mm 2 mps 691 mmHg 61%
    01:00 -3°C° 0 mm 2 mps 691 mmHg 60%
    02:00 -3°C° 0 mm 2 mps 691 mmHg 59%
    03:00 -3°C° 0 mm 2 mps 691 mmHg 58%
    04:00 -2°C° 0 mm 2 mps 691 mmHg 57%
    05:00 -2°C° 0 mm 2 mps 691 mmHg 55%
    06:00 -2°C° 0 mm 2 mps 690 mmHg 53%
    07:00 -2°C° 0 mm 2 mps 690 mmHg 52%
    08:00 -1°C° 0 mm 2 mps 690 mmHg 53%
    09:00 +2°C° 0 mm 2 mps 691 mmHg 54%
    10:00 +3°C° 0 mm 2 mps 691 mmHg 55%
    11:00 +4°C° 0 mm 2 mps 690 mmHg 60%
    12:00 +6°C° 0 mm 1 mps 690 mmHg 64%
    13:00 +7°C° 0 mm 1 mps 690 mmHg 69%
    14:00 +7°C° 0 mm 1 mps 689 mmHg 67%
    15:00 +6°C° 0 mm 1 mps 689 mmHg 65%
    16:00 +4°C° 0 mm 2 mps 688 mmHg 63%
    17:00 +3°C° 0 mm 2 mps 688 mmHg 59%
    18:00 +2°C° 0 mm 2 mps 688 mmHg 55%
    19:00 +1°C° 0 mm 2 mps 688 mmHg 51%
    20:00 +1°C° 0 mm 2 mps 688 mmHg 49%
    21:00 +1°C° 0 mm 2 mps 688 mmHg 47%
    22:00 +1°C° 0 mm 2 mps 687 mmHg 46%
    23:00 +1°C° 0 mm 2 mps 687 mmHg 45%

    22 January, Wednesday

    Time Temperature Precipitation Wind Pressure Humidity
    00:00 +1°C° 0 mm 2 mps 687 mmHg 45%
    01:00 +1°C° 0 mm 2 mps 687 mmHg 45%
    02:00 +1°C° 0 mm 2 mps 686 mmHg 44%
    03:00 +1°C° 0 mm 2 mps 686 mmHg 44%
    04:00 +1°C° 0 mm 2 mps 686 mmHg 44%
    05:00 +1°C° 0 mm 2 mps 685 mmHg 44%
    06:00 +1°C° 0 mm 2 mps 685 mmHg 44%
    07:00 +1°C° 0 mm 2 mps 685 mmHg 44%
    08:00 +3°C° 0 mm 1 mps 685 mmHg 46%
    09:00 +4°C° 0 mm 1 mps 685 mmHg 49%
    10:00 +5°C° 0 mm 1 mps 685 mmHg 52%
    11:00 +6°C° 0 mm 1 mps 685 mmHg 59%
    12:00 +7°C° 0 mm 1 mps 685 mmHg 65%
    13:00 +6°C° 0 mm 0 mps 685 mmHg 72%
    14:00 +6°C° 0 mm 0 mps 684 mmHg 70%
    15:00 +5°C° 0 mm 0 mps 684 mmHg 68%
    16:00 +4°C° 0 mm 0 mps 683 mmHg 67%
    17:00 +3°C° 0 mm 0 mps 683 mmHg 63%
    18:00 +3°C° 0 mm 1 mps 683 mmHg 60%
    19:00 +2°C° 0 mm 1 mps 683 mmHg 57%
    20:00 +2°C° 0 mm 1 mps 683 mmHg 56%
    21:00 +2°C° 0 mm 1 mps 683 mmHg 55%
    22:00 +2°C° 0 mm 1 mps 683 mmHg 54%
    23:00 +2°C° 0 mm 1 mps 683 mmHg 53%

    23 January, Thursday

    Time Temperature Precipitation Wind Pressure Humidity
    00:00 +2°C° 0 mm 1 mps 683 mmHg 52%
    01:00 +2°C° 0 mm 1 mps 683 mmHg 51%
    02:00 +2°C° 0 mm 1 mps 682 mmHg 50%
    03:00 +2°C° 0 mm 1 mps 682 mmHg 49%
    04:00 +2°C° 0 mm 1 mps 682 mmHg 48%
    05:00 +2°C° 0 mm 1 mps 682 mmHg 47%
    06:00 +2°C° 0 mm 1 mps 681 mmHg 47%
    07:00 +2°C° 0 mm 1 mps 681 mmHg 47%
    08:00 +3°C° 0 mm 1 mps 682 mmHg 49%
    09:00 +4°C° 0 mm 1 mps 682 mmHg 52%
    10:00 +4°C° 0 mm 0 mps 682 mmHg 54%
    11:00 +5°C° 0 mm 0 mps 682 mmHg 61%
    12:00 +5°C° 0 mm 0 mps 682 mmHg 67%
    13:00 +6°C° 0 mm 0 mps 681 mmHg 73%
    14:00 +5°C° 0 mm 0 mps 681 mmHg 72%
    15:00 +4°C° 0 mm 0 mps 681 mmHg 72%
    16:00 +3°C° 0 mm 0 mps 680 mmHg 71%
    17:00 +2°C° 0 mm 0 mps 680 mmHg 71%
    18:00 +1°C° 0 mm 0 mps 680 mmHg 70%
    19:00 0°C° 0 mm 0 mps 681 mmHg 69%
    20:00 +1°C° 0 mm 1 mps 681 mmHg 68%
    21:00 +1°C° 0 mm 1 mps 681 mmHg 67%
    22:00 +1°C° 0 mm 1 mps 681 mmHg 66%
    23:00 +1°C° 0 mm 1 mps 681 mmHg 64%
    Show more